Upstream stations:
Downstream station:
SHEF ID: SLSA4 Illinois River at Hwy. 16 near S
STATION TYPE:
PRECIP STAGE RIV-FLOW BAT-LOAD
in ft cfs volt
Ccp-Rev Ccp-Rev Ccp-Rev Ccp-Rev
(US/Central)
07/03 00:00 0.00 6.21 322 12.71
07/03 01:00 0.00 6.21 322 12.65
07/03 02:00 0.00 6.21 322 12.71
07/03 03:00 0.00 6.21 322 12.65
07/03 04:00 0.00 6.21 322 12.71
07/03 05:00 0.00 6.21 322 12.71
07/03 06:00 0.00 6.21 322 12.71
07/03 07:00 0.00 6.21 322 12.65
07/03 08:00 0.00 6.21 322 12.71
07/03 09:00 0.00 6.21 322 12.71
07/03 10:00 0.00 6.21 322 13.18
07/03 11:00 0.00 6.20 319 13.18
07/03 12:00 0.00 6.21 322 13.36
07/03 13:00 0.00 6.20 319 13.30
07/03 14:00 0.00 6.22 326 13.36
07/03 15:00 0.00 6.22 326 13.18
07/03 16:00 0.00 6.21 322 13.36
07/03 17:00 0.00 6.20 319 13.18
07/03 18:00 0.00 6.19 316 13.00
07/03 19:00 0.00 6.19 316 12.95
07/03 20:00 0.00 6.22 326 12.89
07/03 21:00 0.00 6.22 326 12.89
07/03 22:00 0.00 6.22 326 12.89
07/03 23:00 0.00 6.22 326 12.89